Tallahassee, FL

2:56 PM EST on February 27, 2017 (GMT -0500)
Tallahassee Regional

Weather History for KTLH - July, 2013

Change the Weather History Date:

Sunday, July 14, 2013

  Actual Average Record
Temperature  
Mean Temperature 83 °F 82 °F  
Max Temperature 91 °F 92 °F 103 °F (1980)
Min Temperature 74 °F 72 °F 61 °F (1974)
Degree Days  
Heating Degree Days 0    
Month to date heating degree days 0  
Since 1 June heating degree days 0  
Since 1 July heating degree days 0  
Cooling Degree Days 18    
Month to date cooling degree days 209  
Year to date cooling degree days 1191  
Since 1 June cooling degree days 729  
Growing Degree Days 32 (Base 50)    
Moisture  
Dew Point 71 °F    
Average Humidity 73    
Maximum Humidity 93    
Minimum Humidity 52    
Precipitation  
Precipitation 0.02 in 0.22 in 2.55 in (1958)
Month to date precipitation 6.90 3.21  
Year to date precipitation 36.61 32.60  
Sea Level Pressure  
Sea Level Pressure 30.02 in    
Wind  
Wind Speed 9 mph (ESE)    
Max Wind Speed 18 mph    
Max Gust Speed 22 mph    
Visibility 10 miles    
Events Rain    
T = Trace of Precipitation, MM = Missing Value Source: NWS Daily Summary

Daily Weather History Graph

Daily Weather History Graph

Search for Another Location

Airport or City:

Trip Planner

Search our weather history database for the weather conditions in past years. The results will help you decide how hot, cold, wet, or windy it might be!

Date:

Astronomy

Jul. 14, 2013 Rise Set
Actual Time 6:45 AM EDT 8:41 PM EDT
Civil Twilight 6:18 AM EDT 9:08 PM EDT
Nautical Twilight 5:45 AM EDT 9:40 PM EDT
Astronomical Twilight 5:10 AM EDT 10:15 PM EDT
Moon 12:31 PM EDT (7/14) No Moon Set
Length of Visible Light 14h 49m
Length of Day
13h 55m
Waxing Crescent, 35% of the Moon is Illuminated
Jul 14
Waxing Crescent
Jul 15
First Quarter
Jul 22
Full
Jul 29
Last Quarter
Aug 6
New

Hourly Weather History & Observations

Time (EDT) Temp. Heat Index Dew Point Humidity Pressure Visibility Wind Dir Wind Speed Gust Speed Precip Events Conditions
12:53 AM 75.9 °F - 72.0 °F 87% 30.00 in 10.0 mi East 8.1 mph - N/A   Scattered Clouds
1:05 AM 75.2 °F - 71.6 °F 89% 29.99 in 10.0 mi East 9.2 mph - N/A   Mostly Cloudy
1:24 AM 75.2 °F - 71.6 °F 89% 29.99 in 10.0 mi East 8.1 mph - N/A   Overcast
1:53 AM 75.0 °F - 71.1 °F 87% 29.98 in 10.0 mi East 8.1 mph - N/A   Mostly Cloudy
2:53 AM 73.9 °F - 71.1 °F 91% 29.96 in 10.0 mi East 8.1 mph - N/A   Clear
3:23 AM 73.4 °F - 71.6 °F 94% 29.97 in 10.0 mi ESE 6.9 mph - N/A   Scattered Clouds
3:34 AM 73.4 °F - 71.6 °F 94% 29.96 in 10.0 mi ESE 6.9 mph - N/A   Mostly Cloudy
3:53 AM 73.9 °F - 71.1 °F 91% 29.96 in 10.0 mi East 8.1 mph - N/A   Overcast
4:53 AM 73.9 °F - 71.1 °F 91% 29.97 in 10.0 mi East 8.1 mph - N/A   Mostly Cloudy
5:53 AM 73.9 °F - 71.1 °F 91% 29.98 in 9.0 mi East 5.8 mph - 0.01 in Rain Light Rain
6:53 AM 73.9 °F - 71.1 °F 91% 29.99 in 10.0 mi East 8.1 mph - 0.01 in   Overcast
7:53 AM 73.9 °F - 71.1 °F 91% 30.01 in 10.0 mi East 6.9 mph - 0.00 in Rain Light Rain
8:53 AM 75.9 °F - 72.0 °F 87% 30.03 in 10.0 mi East 10.4 mph - 0.00 in   Overcast
9:53 AM 78.1 °F - 71.1 °F 79% 30.02 in 10.0 mi East 10.4 mph - N/A   Overcast
10:15 AM 80.6 °F 84.6 °F 71.6 °F 74% 30.03 in 10.0 mi East 10.4 mph - N/A   Mostly Cloudy
10:53 AM 81.0 °F 84.9 °F 71.1 °F 72% 30.04 in 10.0 mi East 12.7 mph - N/A   Mostly Cloudy
11:07 AM 82.4 °F 87.2 °F 71.6 °F 70% 30.05 in 10.0 mi East 13.8 mph - N/A   Overcast
11:53 AM 82.0 °F 86.7 °F 72.0 °F 71% 30.05 in 10.0 mi East 9.2 mph - N/A   Mostly Cloudy
12:53 PM 84.9 °F 90.7 °F 72.0 °F 65% 30.05 in 10.0 mi SE 9.2 mph 17.3 mph 0.00 in Rain Light Rain
1:18 PM 87.8 °F 92.6 °F 69.8 °F 55% 30.05 in 10.0 mi SE 10.4 mph 19.6 mph 0.00 in   Mostly Cloudy
1:53 PM 88.0 °F 92.1 °F 69.1 °F 53% 30.04 in 10.0 mi SSE 9.2 mph 17.3 mph 0.00 in   Mostly Cloudy
2:53 PM 89.1 °F 94.1 °F 70.0 °F 53% 30.03 in 10.0 mi South 12.7 mph - N/A   Mostly Cloudy
3:53 PM 89.1 °F 93.7 °F 69.1 °F 52% 30.02 in 10.0 mi SE 9.2 mph - N/A   Mostly Cloudy
4:53 PM 90.0 °F 94.5 °F 69.1 °F 50% 30.01 in 10.0 mi South 12.7 mph - N/A   Scattered Clouds
5:53 PM 90.0 °F 94.5 °F 69.1 °F 50% 30.01 in 10.0 mi SSE 12.7 mph - N/A   Scattered Clouds
6:53 PM 84.9 °F 90.1 °F 71.1 °F 63% 30.03 in 10.0 mi East 16.1 mph - N/A   Mostly Cloudy
7:53 PM 84.0 °F 88.4 °F 70.0 °F 63% 30.05 in 10.0 mi ESE 12.7 mph - N/A   Scattered Clouds
8:53 PM 81.0 °F 84.9 °F 71.1 °F 72% 30.06 in 10.0 mi ESE 9.2 mph - N/A   Scattered Clouds
9:53 PM 78.1 °F - 72.0 °F 81% 30.07 in 10.0 mi ESE 4.6 mph - 0.00 in Rain Light Rain
10:53 PM 77.0 °F - 71.1 °F 82% 30.09 in 10.0 mi ESE 6.9 mph - 0.00 in   Scattered Clouds
11:53 PM 75.9 °F - 71.1 °F 85% 30.10 in 10.0 mi ESE 3.5 mph - N/A   Clear